#timestamp,LO_Frequency,Hit 
1504785615.4,286046999.6,N
1504785635.2,286046995.9,N
1504785655.0,286046998.5,N
1504785655.9,286046998.5,N
1504785675.8,286047009.1,P
1504785695.6,286047004.8,N
1504785715.5,286047004.6,N
1504785735.3,286047004.6,N
1504785755.1,286047001.9,N
1504785775.8,286047001.4,N
1504785795.7,286047002.5,N
1504785815.5,286047006.0,N
1504785835.3,286047003.4,N
1504785855.2,286047001.4,N
1504785875.9,286047002.1,N
1504785895.7,286047003.5,N
1504785915.6,286047001.6,N
1504785935.4,286047001.6,N
1504785955.2,286047004.2,N
1504785975.1,286047001.9,N
1504785976.0,286047001.9,N
1504785995.8,286047004.0,N
1504786015.6,286047006.0,N
1504786035.4,286047005.4,N
1504786055.3,286047003.2,N
1504786075.1,286047007.0,P
1504786095.9,286047001.3,N
1504786115.7,286047002.6,N
1504786135.5,286047001.7,N
1504786155.3,286047001.6,N
1504786175.2,286046999.7,N
1504786195.0,286047000.1,N
1504786195.9,286047000.1,N
1504786215.8,286046999.8,N
1504786235.6,286047006.0,N
1504786255.4,286047009.4,P
1504786275.3,286047010.4,N
1504786295.1,286047001.7,N
1504786296.0,286047001.7,N
1504786315.8,286047001.6,N
1504786335.7,286047000.6,N
1504786355.5,286046999.9,N
1504786375.3,286047000.1,N
1504786395.1,286047000.9,N
1504786415.9,286046998.6,N
1504786435.7,286047000.1,N
1504786455.5,286047000.4,N
1504786475.4,286046997.5,N
1504786495.2,286046995.7,N
1504786515.0,286046997.4,N
1504786515.9,286046997.4,N
1504786535.8,286046999.1,N
1504786555.6,286047002.8,N
1504786575.4,286047000.0,N
1504786595.3,286047003.2,N
1504786615.1,286047000.0,N
1504786616.0,286047000.0,N
1504786635.8,286047002.3,N
1504786655.7,286047002.2,N
1504786675.5,286047001.7,N
1504786695.3,286047005.6,N
1504786715.2,286047005.5,N
1504786735.9,286047000.5,N
1504786755.7,286046998.8,N
1504786775.5,286046997.5,N
1504786795.4,286046993.4,N
1504786815.2,286047000.7,N
1504786835.0,286046999.1,N
1504786835.9,286046999.1,N
1504786855.8,286046997.0,N
1504786875.6,286046998.2,N
1504786895.4,286047000.8,N
1504786915.3,286046998.3,N
1504786935.1,286046999.3,N
1504786955.8,286046999.6,N
1504786975.7,286046996.6,N
1504786995.5,286046994.7,N
1504787015.3,286046991.6,P
1504787035.2,286046989.0,N
1504787055.9,286046989.2,N
1504787075.7,286046988.6,N
1504787095.6,286046990.4,N
1504787115.4,286046990.2,N
1504787135.2,286046992.1,N
1504787155.1,286046990.6,N
1504787156.0,286046990.6,P
1504787175.8,286047001.9,P
1504787195.6,286047001.0,N
1504787215.5,286047000.8,N
1504787235.3,286046999.8,N
1504787255.1,286047000.3,N
1504787275.9,286047001.2,N
1504787295.7,286046997.1,N
1504787315.5,286046995.6,N
1504787335.4,286046995.3,N
1504787355.2,286047002.8,N
1504787375.0,286046998.4,N
1504787375.9,286046998.4,N
1504787395.8,286046998.5,N
1504787415.6,286046999.7,N
1504787435.4,286047004.3,N
1504787455.2,286047006.0,N
1504787475.1,286047001.6,N
1504787476.0,286047001.6,N
1504787495.8,286047007.0,N
1504787515.6,286047004.5,N
1504787535.5,286047007.4,N
1504787555.3,286047004.7,N
1504787575.1,286047001.9,N
1504787595.9,286047000.0,N
1504787615.7,286047001.6,N
1504787635.5,286047003.6,N
1504787655.4,286047003.1,N
1504787675.2,286047000.2,N
1504787695.0,286046996.8,N
1504787695.9,286046996.8,N
1504787715.8,286046994.4,N
1504787735.6,286046998.2,N
1504787755.4,286047001.6,N
1504787775.2,286047005.2,N
1504787795.1,286047007.0,N
1504787796.0,286047007.0,N
1504787815.8,286047007.1,N
1504787835.6,286047008.3,N
1504787855.5,286047006.6,N
1504787875.3,286047006.8,N
1504787895.1,286047004.8,N
1504787915.9,286047000.6,N
1504787935.7,286047000.7,N
1504787955.5,286046998.3,N
1504787975.4,286047001.2,N
1504787995.2,286047000.1,N
1504788015.0,286046997.4,N
1504788015.9,286046997.4,N
1504788035.8,286046999.6,N
1504788055.6,286047000.6,N
1504788075.4,286047001.3,N
1504788095.3,286047001.7,N
1504788115.1,286047004.2,N
1504788116.0,286047004.2,N
1504788135.8,286047002.9,N
1504788155.7,286047007.5,N
1504788175.5,286047006.4,N
1504788195.3,286047007.7,N
1504788215.1,286047009.3,N
1504788235.9,286047013.6,P
1504788255.7,286047006.4,N
1504788275.6,286047005.3,N
1504788295.4,286047003.1,N
1504788315.2,286047002.6,N
1504788335.0,286047004.4,N
1504788335.9,286047004.4,N
1504788355.8,286047003.6,N
1504788375.6,286047003.6,N
1504788395.4,286047002.0,N
1504788415.3,286047002.6,N
1504788435.1,286046998.6,N
1504788455.8,286046999.8,N
1504788475.7,286047004.4,N
1504788495.5,286047002.1,N
1504788515.3,286047001.7,N
1504788535.2,286047001.7,N
1504788555.9,286046998.5,N
1504788575.7,286046995.0,N
1504788595.6,286046999.4,N
1504788615.4,286046999.2,N
1504788635.2,286046997.3,N
1504788655.0,286046996.6,N
1504788656.0,286046996.6,N
1504788675.8,286046998.9,N
1504788695.6,286046996.6,N
1504788715.4,286046993.7,N
1504788735.3,286046992.4,N
1504788755.1,286046997.3,N
1504788775.8,286046994.5,N
1504788795.7,286046991.7,N
1504788815.5,286046994.7,N
1504788835.3,286046999.9,N
1504788855.2,286047000.5,N
1504788875.9,286046997.1,N
1504788895.7,286046996.6,N
1504788915.6,286047002.6,N
1504788935.4,286046998.1,N
1504788955.2,286046998.8,N
1504788975.1,286046999.6,N
1504788976.0,286046999.6,N
1504788995.8,286046996.6,N
1504789015.6,286046998.2,N
1504789035.4,286047000.8,N
1504789055.3,286046998.9,N
1504789075.1,286046999.4,N
1504789095.8,286047005.9,N
1504789115.7,286047007.6,N
1504789135.5,286047005.9,N
1504789155.3,286047002.7,N
1504789175.2,286047000.2,N
1504789195.9,286047001.0,N
